Jeudi 27 février 2020   -   semaine 09                    on fête: Honorine                    soleil  (+4 mn) lever du soleil 07:30:00 coucher du soleil 18:29:00                    lune Premier croissant
Sélection

Sélection d'un SYNOP

   Synop:       

  Période à consulter:

Actuelle
Archive     

Relevé

Dernier relevé du SYNOP pour la période choisie

Conditions météo à la station de Vichy/Charmeil (4610N 00324E)    altitude 251m

Date du relevé27/02/2020 à 01:00
Visibilité20km
Vent6 km/h S
Température0.9 C
Température mini / 12h0.0 C
Humidité82.1 %
Point de rosée-1.8 C
Pression absolue986.1 hPa
Pression relative1017.3 hPa
Variation pression-0.6 hPa stationnaire ou en hausse puis en baisse, puis en baisse plus rapide
Précipitations0 mm les 6 dernières heures

24h

Historique de la période choisie

Certaines stations ne diffusent pas en continu, d'où l'absence possible de données à certaines heures. Le tableau ci-dessous récapitule l'historique des relevés de la station de Vichy/Charmeil.

Date - Heure Base des nuages Visibilité Nébulosité Vent - Secteur Température Humidité Point rosée Pression / Géopotentiel Précipitations Temps
27/02 01:00 20km 6 km/h S 0.9 C 82.1 % -1.8 C 1017.3 hPa 0 mm/6h
27/02 00:00 20km 4 km/h SSO -0.7 C 85.0 % -2.9 C 1018.0 hPa
26/02 23:00 20km 4 km/h S -0.2 C 83.8 % -2.6 C 1018.0 hPa
26/02 22:00 20km 4 km/h S -0.2 C 83.2 % -2.7 C 1018.0 hPa
26/02 21:00 20km 2 km/h S 0.9 C 78.0 % -2.5 C 1017.4 hPa
26/02 20:00 20km 2 km/h OSO 3.3 C 64.7 % -2.7 C 1017.0 hPa
26/02 19:00 20km 2 km/h O 5.5 C 53.9 % -3.1 C 1015.6 hPa 0 mm/12h
26/02 18:00 20km 9 km/h ONO 6.8 C 48.9 % -3.2 C 1015.0 hPa
26/02 17:00 20km 6 km/h O 7.8 C 49.9 % -2.0 C 1014.3 hPa
26/02 16:00 20km 9 km/h O 7.7 C 56.9 % -0.3 C 1014.0 hPa
26/02 15:00 20km 9 km/h ONO 6.7 C 53.0 % -2.2 C 1014.0 hPa
26/02 14:00 20km 7 km/h O 6.2 C 59.1 % -1.2 C 1013.9 hPa
26/02 13:00 20km 11 km/h ONO 6.3 C 60.0 % -0.9 C 1014.0 hPa 0 mm/6h
26/02 12:00 19km 11 km/h ONO 6.3 C 59.1 % -1.1 C 1013.2 hPa
26/02 11:00 20km 11 km/h ONO 5.4 C 63.8 % -0.9 C 1012.9 hPa
26/02 10:00 19km 9 km/h O 5.4 C 61.1 % -1.5 C 1012.1 hPa
26/02 09:00 20km 7 km/h O 5.0 C 67.1 % -0.6 C 1011.1 hPa
26/02 08:00 20km 6 km/h O 4.5 C 67.9 % -0.9 C 1010.4 hPa
26/02 07:00 20km 6 km/h O 4.9 C 72.1 % 0.3 C 1009.5 hPa 2 mm/12h
26/02 06:00 20km 7 km/h O 4.9 C 76.9 % 1.2 C 1009.7 hPa
26/02 05:00 18km 7 km/h OSO 4.8 C 79.7 % 1.6 C 1009.5 hPa
26/02 04:00 20km 6 km/h S 3.8 C 84.9 % 1.5 C 1010.0 hPa
26/02 03:00 20km 4 km/h SSO 4.5 C 79.7 % 1.3 C 1010.8 hPa
26/02 02:00 20km 6 km/h O 5.2 C 79.2 % 1.9 C 1011.0 hPa
26/02 01:00 19km 4 km/h O 3.9 C 89.3 % 2.3 C 1011.4 hPa 2 mm/6h

Source: ogimet